Change the Weather History Date:

Monday, October 24, 2011

  Actual Average Record
Temperature  
Mean Temperature 70 °F -  
Max Temperature 82 °F 77 °F 85 °F (1953)
Min Temperature 57 °F 57 °F 35 °F (1982)
Cooling Degree Days 4    
Growing Degree Days 20 (Base 50)    
Moisture  
Dew Point 56 °F    
Average Humidity 68    
Maximum Humidity 93    
Minimum Humidity 35    
Precipitation  
Precipitation 0.00 in - - ()
Sea Level Pressure  
Sea Level Pressure 30.14 in    
Wind  
Wind Speed 3 mph (NNW)    
Max Wind Speed 10 mph    
Max Gust Speed -    
Visibility 10 miles    
Events      
Averages and records for this station are not official NWS values.
T = Trace of Precipitation, MM = Missing Value Source: NWS Daily Summary

Daily Weather History Graph

Daily Weather History Graph

Search for Another Location

Airport or City:

Trip Planner

Search our weather history database for the weather conditions in past years. The results will help you decide how hot, cold, wet, or windy it might be!

Date:

Astronomy

Oct. 24, 2011 Rise Set
Actual Time 7:04 AM CDT 6:16 PM CDT
Civil Twilight 6:40 AM CDT 6:40 PM CDT
Nautical Twilight 6:11 AM CDT 7:08 PM CDT
Astronomical Twilight 5:43 AM CDT 7:36 PM CDT
Moon 4:31 AM CDT (10/24) 4:35 PM CDT (10/24)
Length of Visible Light 12h 00m
Length of Day
11h 11m
Waning Crescent, 7% of the Moon is Illuminated
Oct 24
Waning Crescent
Oct 26
New
Nov 2
First Quarter
Nov 10
Full
Nov 18
Last Quarter

Hourly Weather History & Observations

Time (CDT) Temp. Heat Index Dew Point Humidity Pressure Visibility Wind Dir Wind Speed Gust Speed Precip Events Conditions
12:53 AM 57.9 °F - 55.0 °F 90% 30.11 in 10.0 mi Calm Calm - N/A   Mostly Cloudy
1:53 AM 61.0 °F - 57.0 °F 87% 30.11 in 10.0 mi Calm Calm - N/A   Mostly Cloudy
2:53 AM 57.9 °F - 55.0 °F 90% 30.09 in 10.0 mi Calm Calm - N/A   Scattered Clouds
3:53 AM 60.1 °F - 57.0 °F 90% 30.09 in 10.0 mi NW 3.5 mph - N/A   Overcast
4:53 AM 61.0 °F - 57.0 °F 87% 30.10 in 10.0 mi Calm Calm - N/A   Mostly Cloudy
5:53 AM 57.9 °F - 55.0 °F 90% 30.11 in 10.0 mi Calm Calm - N/A   Clear
6:53 AM 59.0 °F - 57.0 °F 93% 30.12 in 10.0 mi Calm Calm - N/A   Mostly Cloudy
7:53 AM 62.1 °F - 57.9 °F 86% 30.15 in 10.0 mi Calm Calm - N/A   Mostly Cloudy
8:53 AM 68.0 °F - 57.9 °F 70% 30.17 in 10.0 mi NNW 5.8 mph - N/A   Mostly Cloudy
9:53 AM 73.0 °F - 61.0 °F 66% 30.17 in 10.0 mi NW 8.1 mph - N/A   Clear
10:53 AM 75.9 °F - 62.1 °F 62% 30.16 in 10.0 mi NW 8.1 mph - N/A   Clear
11:53 AM 78.1 °F - 57.9 °F 50% 30.15 in 10.0 mi NNW 9.2 mph - N/A   Clear
12:53 PM 80.1 °F 80.2 °F 55.9 °F 43% 30.14 in 10.0 mi North 10.4 mph - N/A   Clear
1:53 PM 81.0 °F 81.0 °F 57.0 °F 44% 30.12 in 10.0 mi NW 8.1 mph - N/A   Clear
2:53 PM 82.0 °F - 52.0 °F 35% 30.11 in 10.0 mi NW 8.1 mph - N/A   Clear
3:53 PM 81.0 °F 80.4 °F 53.1 °F 38% 30.10 in 10.0 mi NNW 9.2 mph - N/A   Clear
4:53 PM 80.1 °F - 52.0 °F 38% 30.11 in 10.0 mi North 8.1 mph - N/A   Clear
5:53 PM 75.0 °F - 53.1 °F 46% 30.12 in 10.0 mi North 6.9 mph - N/A   Clear
6:53 PM 69.8 °F - 53.6 °F 56% 30.14 in 10.0 mi North 9.2 mph - N/A   Clear
7:53 PM 64.9 °F - 53.1 °F 65% 30.17 in 10.0 mi North 5.8 mph - N/A   Clear
8:53 PM 63.0 °F - 54.0 °F 72% 30.18 in 10.0 mi NNW 4.6 mph - N/A   Clear
9:53 PM 62.1 °F - 54.0 °F 75% 30.19 in 10.0 mi North 5.8 mph - N/A   Clear
10:53 PM 62.6 °F - 53.6 °F 72% 30.20 in 10.0 mi North 3.5 mph - N/A   Clear
11:53 PM 61.0 °F - 54.0 °F 78% 30.20 in 10.0 mi NNE 3.5 mph - N/A   Clear